Погода Дзерджинское

Погода Дзерджинское : погода сейчас, прогноз погоды и архив. Всё, что Вы хотите узнать о погоде Дзерджинское!

Хотите узнать прогноз погоды Дзерджинское? Тогда Вам сюда: Погода Дзерджинское

Поиск расширенной информации на нашем сайте:

Другие новости

Новости СМИ2

Главная страница сайта

Новости сайта

03.07.2017

Напоминаем, что на нашем специализированном сайте Метеоцентр.Азия вы можете получить высокодетализированные автоматические прогнозы погоды по пунктам России, СНГ и мира в авиационном формате (включающие направление и скорость ветра, видимость, явления погоды, количество и форму облачности, нижнюю и верхнюю границу облачности).

Рекомендуем: Ремонт husqvarna проблема с хускварной husqvarna.

Погода Дзерджинское - сегодня

Время (UTC), дата Ветер
(°,м/с) 
Видим.   Явления Облачность Т
(°С)
Тd
(°С)
f(%) Тe
(°С)
Pmin
(гПа)
dP
(гПа)
Po
(мм)
O2
(г/м3)
Тmin Tmax R s Состояние
почвы
18 16.09.17 250 (З) 20000 м  {ливн. осадки}  9/9 600 м кучево-дожд. 
[Cb calv]
+12.3 +10.3 88 +16  1003.5  -0.2  736  282           
21 16.09.17 270 (З) 10 км  слаб. ливневой дождь  10/10 600 м кучево-дожд. 
[Cb calv]
+11.4 +10.4 94 +14  1002.2  -1.4  735  282           
00 17.09.17 320 (СЗ) 4{12}  20000 м  {ливн. осадки}  10/10 600 м кучево-дожд. 
[Cb calv]
+5.1 +3.9 92 +3  1006.3  3.5  738  291  +5.1       
09 17.09.17 330 (СЗ) 20000 м  в посл. час ливневой дождь  8/8 600 м кучево-дожд. 
[Cb calv]
+6.5 +5.2 91 +6  1018.1  3.6  746  293           
12 17.09.17 тихо ()   20000 м  в посл. час ливневой дождь  9/9 600 м кучево-дожд. 
[Cb calv]
+5.6 +5.2 97 +6  1019.9  1.7  748  294    +8.3     
15 17.09.17 тихо ()   20000 м    3/3 600 м кучево-дожд. 
[Cb calv]
+3.2 +3 99 +3  1019.6  -0.5  747  297           
18 17.09.17 160 (Ю) 20000 м    3/3 600 м кучево-дожд. 
[Cb calv]
+1.6 +1.4 99 +2  1018.4  -1.4  746  299           
21 17.09.17 140 (ЮВ) 10 км  слаб. ливневой дождь  9/9 600 м кучево-дожд. 
[Cb calv]
+3 +2.8 99 +2  1015.3  -2.9  744  296           
00 18.09.17 140 (ЮВ) 20000 м  {ливн. осадки}  9/6 600 м кучево-дожд., средняя 
[Cb calv|Ac trans]
+3.9 +3.7 99 +3  1012.7  -2.5  742  294  +1.5       
03 18.09.17 160 (Ю) 20000 м  в посл. час дождь  10/6 600 м средняя 
[Frnb|As op]
+5.7 +5.4 98 +7  1009.6  -2.8  740  291           
06 18.09.17 140 (ЮВ) 20000 м  в посл. час дождь  10/10 600 м кучево-дожд. 
[Cb calv]
+7.9 +7.6 98 +9  1006.8  -2.5  738  288           
09 18.09.17 тихо ()   20000 м  {ливн. осадки}  9/9 600 м кучево-дожд. 
[Cb calv]
+11.8 +11.6 99 +15  1006  -0.5  738  283           
12 18.09.17 тихо ()   20000 м  {ливн. осадки}  9/9 600 м кучево-дожд. 
[Cb calv]
+12.6 +12.1 97 +17  1006.5  0.6  738  282    +14.9     
15 18.09.17 тихо ()   20000 м    4/4 600 м кучево-дожд. 
[Cb calv]
+9.5 +9.2 98 +10  1008.1  1.2  739  286           
18 18.09.17 тихо ()   0500 м  туман  ясно 
+4.7 +4.6 99 +5  1009.6  1.2  740  292           
21 18.09.17 тихо ()   0500 м  туман  9/9 600 м кучево-дожд. 
[Cb calv]
+4.8 +4.6 99 +5  1008.9  -0.8  739  292           
00 19.09.17 150 (ЮВ) 0500 м  туман  10/0 средняя 
[As op]
+5.3 +5.1 99 +6  1007.5  -1.3  738  291  +4.6         
03 19.09.17 тихо ()   4000 м  дымка{туман}  10/0 средняя 
[As op]
+7.9 +7.7 99 +8  1006.8  0.5  738  288           
06 19.09.17 130 (ЮВ) 20000 м  {туман}  10/0 средняя 
[As op]
+10.2 +9.1 93 +10  1007.5  0.9  739  285           
09 19.09.17 тихо ()   20000 м    9/5 600 м кучево-дожд., средняя, верхняя 
[Cb calv|Ac trans|Ci fib]
+12 +9.7 86 +13  1008.2  0.9  739  284           
12 19.09.17 110 (В) 20000 м    9/9 600 м кучево-дожд. 
[Cb calv]
+10.6 +10.3 98 +14  1009.1  0.8  740  285    +12.3       
15 19.09.17 140 (ЮВ) 20000 м    10/10 600 м кучево-дожд. 
[Cb calv]
+9.1 +8.9 99 +10  1009.6  0.3  740  287           
18 19.09.17 140 (ЮВ) 10 км  слаб. дождь  10/3 600 м средняя 
[Frnb|As op]
+9.2 +8.9 98 +10  1009.4  -0.1  740  287           
21 19.09.17 170 (Ю) 20000 м  {дождь}  9/9 600 м кучево-дожд. 
[Cb calv]
+8.3 +8 98 +9  1009.4  -0.2  740  288           
00 20.09.17 тихо ()   4000 м  дымка{дождь}  10/8 600 м средняя 
[Frnb|As op]
+8 +7.8 99 +8  1010.2  0.8  741  289  +7.8    0.8     
Время (UTC), дата Ветер
(°,м/с) 
Видим.   Явления Облачность Т
(°С)
Тd
(°С)
f(%) Тe
(°С)
Pmin
(гПа)
dP
(гПа)
Po
(мм)
O2
(г/м3)
Тmin Tmax R s Состояние
почвы

Для получения пояснительной информации подведите курсор к названию столбца.

ПОГОДА Дзерджинское - архив

Всё, что Вы хотите узнать о погоде Дзерджинское - удобно и подробно!

Выберите нужную дату (начиная с 1 января 2015* года) и нажмите кнопку "Найти".
Будут отображены архивные сводки погоды по пункту Дзерджинское, начиная с указанной даты.


Отображать данные в формате CSV (для использования в таблицах Excel)


Внимание! Наш архив погоды предназначен исключительно для личного некоммерческого использования в познавательных целях. Если Вам необходимы официальные справки о состоянии погоды (для производственных, юридических, коммерческих и т.п. целей), обращайтесь в органы Росгидромета.

*Примечание: данная дата относится к архиву по метеостанциям СССР (Россия, СНГ, Балтия).
Архив по метеостанциям Зарубежной Европы и Азии (кроме Китая) хранится 10 дней, по другим регионам земного шара (Китай, Африка, Америка, Австралия, Океания) - 1 день.

Дзерджинское - район местоположения метеостанции


Название, широта, долгота, высота метеостанции:
Дзерджинское 56.9°ш. 95.2°д. 188 м над ур. моря [Российская Федерация]

Дополнительная информация

В oтличие oт бoльшинства пoгoдных сайтoв мы публикуем пoдрoбную метеoинфoрмацию в детальнoм прoфессиoнальнoм фoрмате.

Характеристики температуры и влажнoсти вoздуха измеряются на высoте 2 м в тени вдали oт зданий и деревьев.
Скoрoсть ветра измеряется на высoте 10 м (на урoвне рoста челoвека скoрoсть ветра ниже в 1.5-2 раза). Если метеoстанция нахoдится в гoрoде или в лесу, тo скoрoсть ветра занижена на 2-4 м/с пo сравнению с oткрытым местoм. Скoрoсть ветра над акватoриями крупных рек и oзёр, а также на вершинах хoлмoв на 2-5 м/с выше, чем в oбычных услoвиях.
Атмoсфернoе давление в разных тoчках местнoсти мoжет значительнo oтличаться oт давления на метеoстанции, в зависимoсти oт услoвий рельефа (при пoдъёме на 10 м давление пoнижается примернo на 1 мм рт.ст.).